• MPC Preparation (Info)

  • MPEC 2010-X33 : 2010 XX

    The following Minor Planet Electronic Circular may be linked-to from your own Web pages, but must not otherwise be redistributed electronically.

    A form allowing access to any MPEC is at the bottom of this page.


    Read MPEC 2010-X32 Read MPEC 2010-X34


    M.P.E.C. 2010-X33                                Issued 2010 Dec. 3, 11:58 UT
    
         The Minor Planet Electronic Circulars contain information on unusual
             minor planets and routine data on comets.  They are published
       on behalf of Commission 20 of the International Astronomical Union by the
              Minor Planet Center, Smithsonian Astrophysical Observatory,
                              Cambridge, MA 02138, U.S.A.
    
                 Prepared using the Tamkin Foundation Computer Network
    
                                  MPC@CFA.HARVARD.EDU
           URL https://www.minorplanetcenter.org/iau/mpc.html  ISSN 1523-6714
    
                                        2010 XX
    
    Observations:
         K10X00X* C2010 12 02.26673 04 15 39.99 +21 38 53.5          18.4  cEX033704
         K10X00X  C2010 12 02.27967 04 16 57.20 +21 39 16.3          18.8  cEX033704
         K10X00X  C2010 12 02.29262 04 18 14.10 +21 39 34.9          18.9  cEX033704
         K10X00X  C2010 12 02.30556 04 19 30.52 +21 39 50.3          18.9  cEX033704
         K10X00X KC2010 12 03.07110905 26 12.67 +20 59 54.7                uEX033J95
         K10X00X KC2010 12 03.07190805 26 15.94 +20 59 50.4                uEX033J95
         K10X00X KC2010 12 03.07325705 26 21.51 +20 59 42.3                uEX033J95
         K10X00X KC2010 12 03.07449505 26 26.62 +20 59 35.0          18.5 RuEX033J95
         K10X00X  C2010 12 03.35847 05 45 20.02 +20 34 25.8          17.8 RoEX033H01
         K10X00X  C2010 12 03.36565 05 45 44.79 +20 33 39.0          17.8 RoEX033H01
         K10X00X  C2010 12 03.37370 05 46 12.50 +20 32 45.9          18.0 RoEX033H01
         K10X00X  C2010 12 03.38564 05 46 53.39 +20 31 26.2          18.0 RoEX033H01
         K10X00X KC2010 12 03.39129 05 47 07.00 +20 29 42.4          18.5 RuEX033H36
         K10X00X KC2010 12 03.39366 05 47 15.20 +20 29 25.8          18.3 RuEX033H36
         K10X00X KC2010 12 03.40075 05 47 39.47 +20 28 36.6          18.2 RuEX033H36
    
    Observer details:
    704 Lincoln Laboratory ETS, New Mexico.  Observers M. Blythe, G. Spitz,
        R. Brungard, J. Paige, P. Festler.  1.0-m f/2.15 reflector + CCD.
    H01 Magdalena Ridge Observatory, Socorro.  Observer W. H. Ryan.  2.4-m f/8.9
        reflector + CCD.
    H36 Sandlot Observatory, Scranton.  Observer G. Hug.  0.56-m reflector + CCD.
    J95 Great Shefford.  Observer P. Birtwhistle.  0.40-m f/6.0 Schmidt-Cassegrain
        + CCD.
    
    Orbital elements:
    2010 XX                                                  Earth MOID = 0.0040 AU
    Epoch 2010 July 23.0 TT = JDT 2455400.5                 MPC
    M 329.85065              (2000.0)            P               Q
    n   0.25048415     Peri.  164.73697     +0.57846936     -0.81518593
    a   2.4923893      Node   249.91175     +0.74511524     +0.54257661
    e   0.6054341      Incl.    1.77379     +0.33192842     +0.20268822
    P   3.93           H   27.1           G   0.15           U   6
    Residuals in seconds of arc
    101202 704  0.3+  0.3+    101203 J95  0.3-  0.2+    101203 H01  0.5-  0.2+
    101202 704  0.2+  0.1+    101203 J95  0.0   0.1-    101203 H01  0.5-  0.2+
    101202 704  0.2+  0.3-    101203 J95  0.3+  0.3-    101203 H36  0.6+  0.2+
    101202 704  0.7-  0.2+    101203 H01  0.6-  0.2+    101203 H36  1.3+  0.0
    101203 J95  0.0   0.1-    101203 H01  0.8-  0.3+    101203 H36  0.3+  0.1+
    
    Ephemeris:
    2010 XX                  a,e,i = 2.49, 0.61, 2                   q = 0.9834
    Date    TT    R. A. (2000) Decl.     Delta      r     Elong.  Phase     V
    2010 11 30    00 11.59   +09 50.4    0.0117   0.992   118.8    60.6    19.6
    2010 12 02    03 46.31   +21 23.7    0.0100   0.996   169.5    10.4    17.8
    2010 12 04    06 18.77   +19 27.0    0.0160   1.000   156.8    22.8    19.2
    2010 12 06    07 15.33   +16 33.6    0.0246   1.006   145.1    34.1    20.5
    2010 12 08    07 40.93   +14 53.7    0.0338   1.012   140.7    38.1    21.3
    2010 12 10    07 54.92   +13 54.0    0.0433   1.018   139.2    39.2    21.9
    2010 12 12    08 03.46   +13 16.0    0.0530   1.025   139.0    39.1    22.3
    2010 12 14    08 09.02   +12 50.9    0.0628   1.033   139.6    38.2    22.7
    2010 12 16    08 12.76   +12 34.0    0.0726   1.041   140.6    36.8    23.0
    2010 12 18    08 15.29   +12 22.9    0.0826   1.050   142.0    35.3    23.2
    2010 12 20    08 16.98   +12 15.9    0.0926   1.060   143.5    33.5    23.5
    
    Carl W. Hergenrother         (C) Copyright 2010 MPC           M.P.E.C. 2010-X33
    

    Read MPEC 2010-X32 Read MPEC 2010-X34


    MPEC number:

    Enter an MPEC number in one of the following forms:

    • 1997-B01 (the full form)
    • J97B01 (the packed version of the full form)
    • B01 (the abbreviated form)